STARLINK-37020, 68144

Orbit data source: Space-Track

STARLINK-37020, 68144 is a payload satellite owned by SpaceX/Seattle (US) in SSO that was launched on Fri, 13 Mar 2026 UTC via an FALCON 9 launch vehicle from the Air Force Western Test Range (AFWTR). Payload-class satellites include a variety of spacecraft equipped with specific instruments for various scientific and technological missions. These include communications satellites like Starlink; space stations such as the ISS; scientific satellites like the Hubble; Earth observation satellites from companies like Planet Labs, Umbra, and HawkEye 360; GPS; miniature CubeSats for education and research; and military/defense satellites.

Loading next visibility...
Identifier
68144, 2026-049C
Orbit
SSO
Country
Flag of USUS
Related business
Manufacturer
SpaceX/Seattle
Mission
Operational spacecraft
Bus & Motor
STARLINK V2MO, Unknown motor
Mass
575 kg wet, ~530 kg dry
Launch date (UTC)
2026-03-13 (3 months ago)
Launch vehicle
FALCON 9
Launch site
Air Force Western Test Range (AFWTR)
Object type
Payload
Rocket body
Debris
Shape & HBR
Unknown shape, 17.7 m
Radar Cross Section
Large (>1 m²)

Expand to show TLE details & history
Last TLE update: 21 hours ago

TLE from 21 hours ago
0 STARLINK-37020
1 68144U 26049C   26171.03671579  .00011393  00000-0  35463-3 0  9990
2 68144  97.2844 192.3482 0001328  97.6728 262.4666 15.33449755 15331
Epoch: 2026-06-20T00:52Z
TLE epoch observation values (Epoch: 2026-06-20T00:52:52.244Z)
Latitude
0.00003°
Longitude
-89.12659°
Altitude
468.76 km
Speed
7.632 km/s
True Right ascension
12h 49m 23s
True Declination
0° 00' 00"
Sunlit
Object was in daylight at epoch
Visualization orbit readout
Latitude
Unknown
Longitude
Unknown
Altitude
Unknown
Speed
Unknown
Apparent Right ascension
Unknown
Apparent Declination
Unknown
Sunlit
N/A
Visualization observer readout
Local Sidereal Time
08:41:52
Azimuth
Unknown
Elevation
Unknown
Doppler factor
Unknown
Orbital elements
Apogee altitude
463.38 km
Perigee altitude
461.563 km
Semi-major axis
6,840.609 km
Eccentricity
0.00013
Inclination
97.2844°
RAAN
192.3482°
Arg. of periapsis
97.6728°
True anomaly
262.45151°
Mean anomaly
262.4666°
Eccentric anomaly
262.45906°
Mean motion
3.8362 °/min
Orbital period
93.84 mins
BSTAR
0.00035463
Loading maneuver chart data...
Computing Atmospheric mass density...
Loading historical data...
Loading historical data...
Loading historical data...
Loading historical data...
Loading historical data...
Loading historical data...
Loading historical data...

Documentation

Showing up to 5 results
|